Showing default

YAOGAN-40 02A, 63918

Orbit data source: Space-Track

YAOGAN-40 02A, 63918 is a payload satellite owned by CAST (CN) in LEO that was launched on Sun, 11 May 2025 UTC via a CHANG ZHENG 6A launch vehicle from the Taiyaun Space Center, China (TSC). Payload-class satellites include a variety of spacecraft equipped with specific instruments for various scientific and technological missions. These include communications satellites like Starlink; space stations such as the ISS; scientific satellites like the Hubble; Earth observation satellites from companies like Planet Labs, Umbra, and HawkEye 360; GPS; miniature CubeSats for education and research; and military/defense satellites.

Loading next visibility...
Identifier
63918, 2025-096A
Orbit
LEO
Country
Flag of CNCN / PRC
Related business
Manufacturer
DFH
Mission
Operational Defense Sigint
Bus & Motor
YG40, Unknown motor
Mass
~500 kg wet, ~500 kg dry
Launch date (UTC)
2025-05-11 (10 months ago)
Launch vehicle
CHANG ZHENG 6A
Launch site
Taiyaun Space Center, China (TSC)
Object type
Payload
Rocket body
Debris
Shape & HBR
Box + 2 Pan, 2.0 m
Radar Cross Section
5.141 m², Large (>1 m²)

Expand to show TLE details & history
Last TLE update: 7 hours ago

TLE from 7 hours ago
0 YAOGAN-40 02A
1 63918U 25096A   26061.87443020  .00000162  00000-0  77573-4 0  9994
2 63918  85.9905 235.5942 0002359  87.1480 272.9973 14.12424498 41566
Epoch: 2026-03-02T20:59Z
TLE epoch observation values (Epoch: 2026-03-02T20:59:10.769Z)
Latitude
-0.00002°
Longitude
120.13775°
Altitude
854.012 km
Speed
7.426 km/s
True Right ascension
15h 42m 22s
True Declination
0° 00' 00"
Sunlit
Object was in daylight at epoch
Visualization orbit readout
Latitude
Unknown
Longitude
Unknown
Altitude
Unknown
Speed
Unknown
Apparent Right ascension
Unknown
Apparent Declination
Unknown
Sunlit
N/A
Visualization observer readout
Local Sidereal Time
07:14:34
Azimuth
Unknown
Elevation
Unknown
Doppler factor
Unknown
Orbital elements
Apogee altitude
849.796 km
Perigee altitude
846.386 km
Semi-major axis
7,226.228 km
Eccentricity
0.00024
Inclination
85.9905°
RAAN
235.5942°
Arg. of periapsis
87.148°
True anomaly
272.9703°
Mean anomaly
272.9973°
Eccentric anomaly
272.9838°
Mean motion
3.53326 °/min
Orbital period
101.89 mins
BSTAR
0.000077573
Loading maneuver chart data...
Computing Atmospheric mass density...
Loading historical data...
Loading historical data...
Loading historical data...
Loading historical data...
Loading historical data...
Loading historical data...
Loading historical data...
Other satellites on launch #96 in the year 2025 (2025-05-11 UTC)

Documentation

Showing up to 5 results
|